User: anonymous   Login
Location: Caltech
(34.1382°N, 118.1253°W)
Time: 11:59:20
(UTC-07:00)
Language:

OAO 1 Rocket - Orbit

View from above orbital plane
View from above orbital plane
View from above satellite
View from above satellite

Ground track
Ground track

The orbit data is extracted from the following two-line orbital elements,

1 02144U 66031B   15245.15711901  .00000122  00000-0  42243-4 0  9993
2 02144  35.0416 222.8094 0008394 350.6509   9.4024 14.42456715593613
Epoch (UTC): 02 September 2015 03:46:15
Eccentricity: 0.0008394
inclination: 35.0416°
perigee height: 744 km
apogee height: 756 km
right ascension of ascending node: 222.8094°
argument of perigee: 350.6509°
revolutions per day: 14.42456715
mean anomaly at epoch: 9.4024°
orbit number at epoch: 59361

The dashed part of the orbit path shows where the satellite is in the earth's shadow,  

DLR